User: anonymous
Location: Caltech
(34.1382°N, 118.1253°W)
Time: 04:51:23
(UTC-07:00)
Language:

Cosmos 1697 Rocket - Orbit

View from above orbital plane
View from above orbital plane
View from above satellite
View from above satellite

Ground track
Ground track

The orbit data is extracted from the following two-line orbital elements,

1 16182U 85097B   14272.14646163 -.00000018  00000-0  14929-4 0  3784
2 16182 071.0022 295.1471 0006415 161.1865 255.2171 14.16124902495770
Epoch (UTC): 29 September 2014 03:30:54
Eccentricity: 0.0006415
inclination: 71.0022°
perigee height: 834 km
apogee height: 843 km
right ascension of ascending node: 295.1471°
argument of perigee: 161.1865°
revolutions per day: 14.16124902
mean anomaly at epoch: 255.2171°
orbit number at epoch: 49577

The dashed part of the orbit path shows where the satellite is in the earth's shadow,  

DLR